Regional Weather Roundup
Issued by NWS Green Bay, WI

Home | Current Version | Previous Version | Text Only | Print | Product List | Glossary On
Versions: 1 2 3 4 5 6 7 8 9 10 11 12 13 14 15 16 17 18 19 20 21 22 23 24 25 26 27 28 29 30 31 32 33 34 35 36 37 38 39 40 41 42 43 44 45 46 47 48 49 50
000
ASUS43 KGRB 260211
RWRGRB

NORTH-CENTRAL AND NORTHEAST WISCONSIN REGIONAL WEATHER ROUNDUP
NATIONAL WEATHER SERVICE GREEN BAY WI
900 PM CDT MON JUL 25 2016

WIZ005-009-010>012-018-019-260300-
NORTH CENTRAL WISCONSIN

CITY           SKY/WX    TMP DP  RH WIND       PRES   REMARKS
IRONWOOD       CLEAR     70  64  83 CALM      29.97S
MANITOWISH WTR CLEAR     65  65  99 CALM      30.03R
ARBOR VITAE    CLEAR     69  62  77 CALM      30.03S
EAGLE RIVER    CLEAR     65  57  75 CALM      30.03R
LAND O LAKES   CLEAR     64  59  85 CALM      30.03S
RHINELANDER    CLEAR     65  60  84 CALM      30.03S
PHILLIPS       CLEAR     70  63  78 CALM      30.02S
ANTIGO         CLEAR     67  62  84 CALM      30.03R
TOMAHAWK       CLEAR     65  61  87 CALM      30.03S
MERRILL        CLEAR     70  62  76 W3        30.03R
$$

WIZ013-073-260300-
NORTHEAST WISCONSIN

CITY           SKY/WX    TMP DP  RH WIND       PRES   REMARKS
IRON MOUNTAIN  CLEAR     67  58  72 CALM      29.98R
MARINETTE      CLEAR    N/A N/A N/A CALM      29.97R
OCONTO         CLEAR     69  69 100 CALM      29.97R
$$

WIZ017-030-035>037-045-260300-
CENTRAL WISCONSIN

CITY           SKY/WX    TMP DP  RH WIND       PRES   REMARKS
MEDFORD        CLEAR     66  65  95 CALM      30.03S
WAUSAU         CLEAR     74  60  61 W5        30.00S
MOSINEE        CLEAR     73  61  64 W6        30.04R
MARSHFIELD     CLEAR     71  63  75 W5        30.03R
WISC RAPIDS    CLEAR     70  63  78 CALM      30.03R
STEVENS POINT  CLEAR     71  62  75 CALM      30.03R
WAUPACA        CLEAR     73  64  72 CALM      30.01R
SHAWANO        CLEAR     72  64  74 CALM      29.99R
CLINTONVILLE   CLEAR     72  61  68 CALM      29.99S
WAUTOMA        CLEAR     71  66  84 CALM      30.02R
$$

WIZ038-039-048-051-260300-
FOX VALLEY

CITY           SKY/WX    TMP DP  RH WIND       PRES   REMARKS
NWS GREEN BAY  CLEAR     70  68  93 W5        29.98R
APPLETON       PTCLDY    73  61  64 VRB5      29.99R
OSHKOSH        CLEAR     74  63  68 W3        30.00R
FOND DU LAC    CLEAR     74  64  71 W5        30.01R
$$

WIZ022-050-052-260300-
EAST CENTRAL WISCONSIN

CITY           SKY/WX    TMP DP  RH WIND       PRES   REMARKS
EPHRAIM        FAIR      69  64  83 CALM      29.96S
WASHINGTON ISL NOT AVBL
STURGEON BAY   CLEAR     71  65  81 SW3       29.98R
MANITOWOC      MOCLDY    77  63  61 W5        29.99R
SHEBOYGAN      CLEAR     70  65  84 CALM      30.00R
$$

LMZ563-521-522-541>543-260300-
LAKESHORE

STATION/POSITION TIME  TEMP    WIND        PRES    VSBY  WAVE
                       AIR SEA DIR/SP/G                  HT/PER
                 (UTC) (F)     (DEG/KT/KT) (MB)    (MI)  (FT/S)
SHEBOYGAN LKSHOR 0200   73     180/  3/  4 1015.6R
KEWAUNEE LKSHORE 0100          190/  3/  5   N/A
ALGOMA MARINA    0113             CALM       N/A
NORTHPORT PIER   0100   74     120/  8/ 12 1014.2R
N MID LAKE BUOY  0150   71 71  150/  6/  6 1014.0R         1
S GREEN BAY BUOY 0130   76 75  270/  4/  6   N/A
SISTER BAY LKSHO 0121   78     130/  6/  9   N/A
CHAMBERS ISLAND  0100   73        CALM     1014.2R
MENOMINEE LKSHOR 0100   81     290/  1/  4   N/A
$$




USA.gov is the U.S. government's official web portal to all federal, state and local government web resources and services.